When you browse on this site, cookies collect data to enhance your experience and personalize the content and advertising you see.
Visit our Privacy Policy to learn more. By continuing to use the site, you agree to this use of cookies and data.
  • In Lithuania
  • List of Countries
  • For 7 days
  • Water Temperature
  • Satellite Maps
  • Weather Map
  • Weather Widgets
  • user-avatar
    Login

    Hourly Weather Zborowice

    Today, 21 March, Thursday

    Time Temperature Precipitation Wind Pressure Humidity
    00:00 +4°C° 0 mm 2 mps 761 mmHg 64%
    01:00 +4°C° 0 mm 2 mps 762 mmHg 66%
    02:00 +3°C° 0 mm 3 mps 761 mmHg 66%
    03:00 +3°C° 0 mm 3 mps 761 mmHg 66%
    04:00 +2°C° 0 mm 3 mps 761 mmHg 66%
    05:00 +3°C° 0 mm 3 mps 761 mmHg 67%
    06:00 +4°C° 0 mm 2 mps 761 mmHg 68%
    07:00 +4°C° 0 mm 2 mps 762 mmHg 68%
    08:00 +6°C° 0 mm 2 mps 762 mmHg 66%
    09:00 +8°C° 0 mm 3 mps 762 mmHg 63%
    10:00 +10°C° 0 mm 3 mps 762 mmHg 61%
    11:00 +11°C° 0 mm 3 mps 762 mmHg 61%
    12:00 +13°C° 0 mm 2 mps 761 mmHg 61%
    13:00 +14°C° 0 mm 2 mps 761 mmHg 62%
    14:00 +14°C° 0 mm 2 mps 761 mmHg 62%
    15:00 +14°C° 0 mm 2 mps 761 mmHg 62%
    16:00 +14°C° 0 mm 2 mps 760 mmHg 62%
    17:00 +13°C° 0 mm 2 mps 760 mmHg 67%
    18:00 +12°C° 0 mm 1 mps 760 mmHg 72%
    19:00 +11°C° 0 mm 1 mps 760 mmHg 77%
    20:00 +10°C° 0 mm 1 mps 760 mmHg 80%
    21:00 +10°C° 0 mm 1 mps 760 mmHg 82%
    22:00 +9°C° 0 mm 1 mps 761 mmHg 84%
    23:00 +9°C° 0 mm 1 mps 761 mmHg 85%

    Tomorrow, 22 March, Friday

    Time Temperature Precipitation Wind Pressure Humidity
    00:00 +9°C° 0 mm 1 mps 761 mmHg 86%
    01:00 +8°C° 0 mm 1 mps 761 mmHg 87%
    02:00 +8°C° 0 mm 1 mps 760 mmHg 88%
    03:00 +8°C° 0 mm 1 mps 760 mmHg 88%
    04:00 +8°C° 0 mm 1 mps 760 mmHg 88%
    05:00 +8°C° 0 mm 1 mps 760 mmHg 88%
    06:00 +9°C° 0 mm 1 mps 760 mmHg 87%
    07:00 +9°C° 0 mm 1 mps 761 mmHg 86%
    08:00 +11°C° 0 mm 1 mps 760 mmHg 80%
    09:00 +12°C° 0 mm 1 mps 760 mmHg 75%
    10:00 +14°C° 0 mm 1 mps 760 mmHg 70%
    11:00 +15°C° 0 mm 1 mps 760 mmHg 67%
    12:00 +16°C° 0 mm 1 mps 760 mmHg 64%
    13:00 +17°C° 0 mm 2 mps 760 mmHg 60%
    14:00 +18°C° 0 mm 1 mps 759 mmHg 59%
    15:00 +18°C° 0 mm 1 mps 759 mmHg 59%
    16:00 +18°C° 0 mm 1 mps 759 mmHg 58%
    17:00 +16°C° 0 mm 1 mps 758 mmHg 65%
    18:00 +14°C° 0 mm 1 mps 758 mmHg 72%
    19:00 +13°C° 0 mm 1 mps 758 mmHg 79%
    20:00 +12°C° 0 mm 1 mps 758 mmHg 82%
    21:00 +11°C° 0 mm 1 mps 758 mmHg 85%
    22:00 +11°C° 0 mm 1 mps 758 mmHg 88%
    23:00 +11°C° 0 mm 1 mps 758 mmHg 88%

    Day after tomorrow, 23 March, Saturday

    Time Temperature Precipitation Wind Pressure Humidity
    00:00 +10°C° 0 mm 1 mps 758 mmHg 88%
    01:00 +10°C° 0 mm 1 mps 758 mmHg 88%
    02:00 +10°C° 0 mm 1 mps 757 mmHg 88%
    03:00 +10°C° 0 mm 1 mps 757 mmHg 88%
    04:00 +9°C° 0 mm 1 mps 757 mmHg 88%
    05:00 +9°C° 0 mm 2 mps 757 mmHg 86%
    06:00 +9°C° 0 mm 2 mps 756 mmHg 84%
    07:00 +9°C° 0 mm 2 mps 756 mmHg 82%
    08:00 +12°C° 0 mm 2 mps 756 mmHg 74%
    09:00 +14°C° 0 mm 2 mps 756 mmHg 65%
    10:00 +17°C° 0 mm 2 mps 756 mmHg 56%
    11:00 +18°C° 0 mm 2 mps 756 mmHg 52%
    12:00 +19°C° 0 mm 2 mps 755 mmHg 49%
    13:00 +19°C° 0 mm 2 mps 755 mmHg 45%
    14:00 +20°C° 0 mm 2 mps 755 mmHg 45%
    15:00 +20°C° 0 mm 2 mps 754 mmHg 45%
    16:00 +20°C° 0 mm 2 mps 754 mmHg 45%
    17:00 +19°C° 0 mm 1 mps 754 mmHg 50%
    18:00 +18°C° 0 mm 1 mps 754 mmHg 55%
    19:00 +15°C° 0 mm 1 mps 754 mmHg 60%
    20:00 +15°C° 0 mm 1 mps 755 mmHg 62%
    21:00 +15°C° 0 mm 2 mps 755 mmHg 64%
    22:00 +14°C° 0 mm 2 mps 755 mmHg 66%
    23:00 +12°C° 0 mm 3 mps 755 mmHg 72%

    24 March, Sunday

    Time Temperature Precipitation Wind Pressure Humidity
    00:00 +11°C° 0 mm 3 mps 756 mmHg 78%
    01:00 +10°C° 0 mm 3 mps 756 mmHg 84%
    02:00 +10°C° 0 mm 3 mps 756 mmHg 85%
    03:00 +9°C° 0 mm 3 mps 756 mmHg 85%
    04:00 +9°C° 0 mm 3 mps 756 mmHg 85%
    05:00 +9°C° 0.1 mm 3 mps 756 mmHg 85%
    06:00 +8°C° 0.1 mm 3 mps 756 mmHg 84%
    07:00 +8°C° 0.1 mm 3 mps 756 mmHg 83%
    08:00 +9°C° 0 mm 2 mps 756 mmHg 79%
    09:00 +9°C° 0 mm 2 mps 756 mmHg 75%
    10:00 +9°C° 0 mm 2 mps 756 mmHg 71%
    11:00 +11°C° 0 mm 1 mps 755 mmHg 70%
    12:00 +12°C° 0 mm 1 mps 755 mmHg 68%
    13:00 +12°C° 0 mm 1 mps 754 mmHg 67%
    14:00 +12°C° 0 mm 1 mps 754 mmHg 67%
    15:00 +12°C° 0 mm 1 mps 753 mmHg 68%
    16:00 +12°C° 0 mm 1 mps 753 mmHg 68%
    17:00 +11°C° 0 mm 1 mps 753 mmHg 69%
    18:00 +11°C° 0 mm 1 mps 752 mmHg 70%
    19:00 +10°C° 0 mm 1 mps 752 mmHg 70%
    20:00 +10°C° 0 mm 1 mps 752 mmHg 70%
    21:00 +9°C° 0 mm 0 mps 752 mmHg 69%
    22:00 +9°C° 0 mm 0 mps 751 mmHg 69%
    23:00 +9°C° 0 mm 1 mps 751 mmHg 70%

    25 March, Monday

    Time Temperature Precipitation Wind Pressure Humidity
    00:00 +9°C° 0 mm 1 mps 751 mmHg 72%
    01:00 +7°C° 0 mm 2 mps 750 mmHg 73%
    02:00 +7°C° 0.9 mm 2 mps 750 mmHg 78%
    03:00 +6°C° 0.9 mm 2 mps 750 mmHg 82%
    04:00 +4°C° 0.9 mm 3 mps 750 mmHg 87%
    05:00 +4°C° 0 mm 3 mps 750 mmHg 86%
    06:00 +4°C° 0 mm 3 mps 750 mmHg 86%
    07:00 +4°C° 0 mm 4 mps 750 mmHg 85%
    08:00 +6°C° 0 mm 4 mps 750 mmHg 76%
    09:00 +7°C° 0 mm 5 mps 750 mmHg 66%
    10:00 +8°C° 0 mm 5 mps 751 mmHg 57%
    11:00 +8°C° 0.1 mm 6 mps 750 mmHg 57%
    12:00 +8°C° 0.1 mm 6 mps 750 mmHg 58%
    13:00 +8°C° 0.1 mm 6 mps 749 mmHg 59%
    14:00 +9°C° 0 mm 7 mps 749 mmHg 55%
    15:00 +9°C° 0 mm 7 mps 748 mmHg 51%
    16:00 +9°C° 0 mm 8 mps 748 mmHg 47%
    17:00 +7°C° 0.1 mm 8 mps 748 mmHg 54%
    18:00 +6°C° 0.1 mm 7 mps 748 mmHg 60%
    19:00 +5°C° 0.1 mm 7 mps 748 mmHg 66%
    20:00 +4°C° 0.1 mm 7 mps 748 mmHg 67%
    21:00 +3°C° 0.1 mm 7 mps 748 mmHg 68%
    22:00 +2°C° 0.1 mm 7 mps 748 mmHg 69%
    23:00 +2°C° 0 mm 7 mps 748 mmHg 70%

    26 March, Tuesday

    Time Temperature Precipitation Wind Pressure Humidity
    00:00 0°C° 0 mm 7 mps 748 mmHg 71%
    01:00 0°C° 0 mm 7 mps 748 mmHg 72%
    02:00 -1°C° 0 mm 7 mps 748 mmHg 71%
    03:00 -1°C° 0 mm 8 mps 748 mmHg 71%
    04:00 -1°C° 0 mm 8 mps 747 mmHg 71%
    05:00 -1°C° 0 mm 9 mps 747 mmHg 69%
    06:00 -2°C° 0 mm 10 mps 748 mmHg 68%
    07:00 -2°C° 0 mm 11 mps 748 mmHg 66%
    08:00 -2°C° 0.2 mm 11 mps 748 mmHg 63%
    09:00 -1°C° 0.2 mm 11 mps 748 mmHg 59%
    10:00 -1°C° 0.2 mm 11 mps 748 mmHg 56%
    11:00 -1°C° 0.1 mm 11 mps 749 mmHg 54%
    12:00 +1°C° 0.1 mm 11 mps 749 mmHg 53%
    13:00 +1°C° 0.1 mm 11 mps 750 mmHg 52%
    14:00 +1°C° 0 mm 11 mps 750 mmHg 51%
    15:00 +1°C° 0 mm 10 mps 751 mmHg 50%
    16:00 +1°C° 0 mm 10 mps 751 mmHg 50%
    17:00 0°C° 0 mm 9 mps 752 mmHg 52%
    18:00 0°C° 0 mm 8 mps 753 mmHg 55%
    19:00 -1°C° 0 mm 7 mps 753 mmHg 58%
    20:00 -1°C° 0 mm 7 mps 754 mmHg 59%
    21:00 -2°C° 0 mm 7 mps 754 mmHg 60%
    22:00 -2°C° 0 mm 7 mps 755 mmHg 61%
    23:00 -3°C° 0 mm 7 mps 755 mmHg 63%
    Show more